Flag for Switzerland Weather past 2 weeks in Winterthur, Switzerland

Now
41 °F

Passing clouds.


Feels Like: 36 °F
Forecast: 33 / 42 °F
Wind: 8 mph from Southwest

Location: Zurich-Kloten

Current Time: Dec 21, 2014 at 12:49:26 AM

Latest Report: Dec 21, 2014 at 12:20 AM


Visibility: N/A

Pressure: 30.48 "Hg

Humidity: 66%

Dew point: 30 °F

Location of WinterthurLocation

Historic Weather in Winterthur — Graph

°F

Winterthur temperature yesterday

Maximum temperature yesterday: 48 °F (at 12:20 AM)
Minimum temperature yesterday: 39 °F (at 5:20 PM)
Average temperature yesterday: 44 °F

Past Weeks' High & Low Weather Summary

 TemperatureHumidityPressure
High54 °F (Dec 13, 1:20 PM)100% (Dec 6, 3:20 AM)30.48 "Hg (Dec 6, 3:20 AM)
Low28 °F (Dec 9, 9:20 PM)46% (Dec 12, 7:20 PM)29.83 "Hg (Dec 12, 7:20 PM)
Average42 °F84%30.11 "Hg
* Reported Dec 5 11:20 PM — Dec 20 11:50 PM, Winterthur, Weather by CustomWeather, © 2014

Note: Actual official high and low records may vary slightly from our data, if they occured in-between our weather recording intervals... More about our weather records

Advertising

Winterthur weather history for previous 24 hours

 ConditionsComfort  
Time TempWeatherWind HumidityBarometerVisibility
11:50 PM
Dec 20
43 °FPassing clouds.8 mph61%30.48 "HgN/A
11:20 PM43 °FPartly cloudy.5 mph61%30.48 "HgN/A
10:50 PM43 °FPartly cloudy.9 mph61%30.45 "HgN/A
10:20 PM43 °FPassing clouds.9 mph61%30.45 "HgN/A
9:50 PM43 °FPassing clouds.8 mph61%30.45 "HgN/A
9:20 PM41 °FPassing clouds.8 mph61%30.42 "HgN/A
8:50 PM41 °FPartly cloudy.8 mph61%30.42 "HgN/A
8:20 PM41 °FPartly cloudy.12 mph66%30.42 "HgN/A
7:50 PM41 °FPartly cloudy.8 mph61%30.42 "HgN/A
7:20 PM41 °FPassing clouds.8 mph66%30.39 "HgN/A
6:20 PM41 °FPassing clouds.12 mph66%30.39 "HgN/A
5:50 PM41 °FPassing clouds.14 mph66%30.36 "HgN/A
5:20 PM39 °FPassing clouds.14 mph70%30.36 "HgN/A
4:50 PM41 °FPassing clouds.18 mph70%30.33 "HgN/A
4:20 PM41 °FPartly sunny.18 mph66%30.33 "HgN/A
3:50 PM41 °FBroken clouds.18 mph70%30.33 "HgN/A
3:20 PM43 °FPassing clouds.20 mph71%30.30 "HgN/A
2:50 PM43 °FPassing clouds.15 mph71%30.30 "HgN/A
2:20 PM43 °FScattered clouds.16 mph71%30.30 "HgN/A
1:50 PM45 °FScattered clouds.14 mph71%30.30 "HgN/A
1:20 PM43 °FScattered clouds.16 mph71%30.30 "HgN/A
12:20 PM45 °FScattered clouds.14 mph71%30.33 "HgN/A
11:50 AM43 °FScattered clouds.16 mph76%30.36 "HgN/A
11:20 AM45 °FPassing clouds.12 mph71%30.36 "HgN/A
10:50 AM43 °FScattered clouds.13 mph76%30.36 "HgN/A
10:20 AM41 °FScattered clouds.9 mph81%30.36 "HgN/A
9:50 AM41 °FScattered clouds.10 mph81%30.36 "HgN/A
9:20 AM41 °FScattered clouds.12 mph81%30.36 "HgN/A
8:50 AM41 °FPassing clouds.10 mph87%30.33 "HgN/A
8:20 AM41 °FScattered clouds.14 mph87%30.33 "HgN/A
7:50 AM43 °FPassing clouds.12 mph81%30.33 "HgN/A
7:20 AM43 °FPassing clouds.10 mph87%30.33 "HgN/A
6:50 AM45 °FPassing clouds.7 mph81%30.33 "HgN/A
6:20 AM45 °FPassing clouds.8 mph87%30.33 "HgN/A
5:50 AM46 °FPassing clouds.6 mph87%30.30 "HgN/A
5:20 AM46 °FPassing clouds.3 mph93%30.30 "HgN/A
4:50 AM48 °FPassing clouds.6 mph87%30.30 "HgN/A
4:20 AM48 °FScattered showers. Partly cloudy.7 mph94%30.30 "HgN/A
3:50 AM48 °FScattered showers. Partly cloudy.6 mph94%30.27 "HgN/A
3:20 AM48 °FPartly cloudy.8 mph94%30.27 "Hg6 mi
2:50 AM48 °FRain. Partly cloudy.8 mph94%30.27 "Hg2 mi
2:20 AM48 °FPartly cloudy.12 mph94%30.27 "Hg2 mi
1:50 AM48 °FRain showers. Partly cloudy.14 mph94%30.27 "Hg2 mi
12:50 AM48 °FPassing clouds.14 mph94%30.24 "HgN/A
12:20 AM48 °FPassing clouds.14 mph94%30.24 "Hg4 mi
Weather by CustomWeather, © 2014

See weather overviewHow to use our weather pages